TimeAEDT,TemperatureF,Dew PointF,Humidity,Sea Level PressureIn,VisibilityMPH,Wind Direction,Wind SpeedMPH,Gust SpeedMPH,PrecipitationIn,Events,Conditions,WindDirDegrees,DateUTC
12:00 AM,50,42,65,29.95,,NE,8.1,,,,,40,2013-10-15 13:00:00
12:00 AM,50.0,42.8,76,29.95,6.2,NE,8.1,-,N/A,,Unknown,40,2013-10-15 13:00:00
12:30 AM,50.0,41.0,71,29.92,6.2,North,9.2,-,N/A,,Scattered Clouds,10,2013-10-15 13:30:00
1:00 AM,48.2,41.0,76,29.92,6.2,North,8.1,-,N/A,,Overcast,360,2013-10-15 14:00:00
1:30 AM,48.2,39.2,71,29.92,6.2,NW,9.2,-,N/A,,Scattered Clouds,320,2013-10-15 14:30:00
2:00 AM,48.2,41.0,76,29.89,6.2,North,9.2,-,N/A,,Unknown,10,2013-10-15 15:00:00
2:30 AM,51.8,39.2,62,29.86,6.2,North,10.4,-,N/A,,Unknown,10,2013-10-15 15:30:00
3:00 AM,51,39,53,29.86,,North,12.7,,,,,10,2013-10-15 16:00:00
3:00 AM,51.8,39.2,62,29.86,6.2,North,12.7,-,N/A,,Overcast,10,2013-10-15 16:00:00
3:30 AM,53.6,39.2,58,29.83,6.2,North,13.8,-,N/A,,Overcast,10,2013-10-15 16:30:00
4:00 AM,53.6,39.2,58,29.83,6.2,NNE,10.4,-,N/A,,Overcast,20,2013-10-15 17:00:00
4:30 AM,53.6,39.2,58,29.80,6.2,NNE,12.7,-,N/A,,Overcast,20,2013-10-15 17:30:00
5:00 AM,53.6,39.2,58,29.80,6.2,NNE,13.8,-,N/A,,Overcast,30,2013-10-15 18:00:00
5:30 AM,53.6,39.2,58,29.80,6.2,NNE,10.4,-,N/A,,Overcast,20,2013-10-15 18:30:00
6:00 AM,54,40,47,29.79,,NNE,11.5,,,,,20,2013-10-15 19:00:00
6:00 AM,53.6,39.2,58,29.77,6.2,North,11.5,-,N/A,,Mostly Cloudy,10,2013-10-15 19:00:00
6:30 AM,55.4,39.2,54,29.77,6.2,North,13.8,-,N/A,,Overcast,10,2013-10-15 19:30:00
7:00 AM,57.2,39.2,51,29.74,6.2,NNE,13.8,-,N/A,,Overcast,20,2013-10-15 20:00:00
7:30 AM,59.0,39.2,48,29.74,6.2,North,10.4,-,N/A,,Overcast,10,2013-10-15 20:30:00
8:00 AM,62.6,37.4,39,29.71,6.2,North,20.7,-,N/A,,Overcast,360,2013-10-15 21:00:00
8:30 AM,64.4,37.4,37,29.71,6.2,North,21.9,-,N/A,,Overcast,360,2013-10-15 21:30:00
9:00 AM,66,38,24,29.73,,North,23.0,,,,Overcast,350,2013-10-15 22:00:00
9:00 AM,66.2,37.4,35,29.71,6.2,North,23.0,-,N/A,,Overcast,350,2013-10-15 22:00:00
9:12 AM,66.2,35.6,32,29.71,6.2,North,26.5,39.1,N/A,,Overcast,350,2013-10-15 22:12:00
9:30 AM,68.0,35.6,30,29.71,6.2,North,33.4,48.3,N/A,,Overcast,350,2013-10-15 22:30:00
10:00 AM,68.0,35.6,30,29.71,6.2,North,27.6,-,N/A,,Overcast,350,2013-10-15 23:00:00
10:19 AM,68.0,35.6,30,29.68,6.2,North,27.6,42.6,N/A,,Overcast,350,2013-10-15 23:19:00
10:30 AM,68.0,37.4,33,29.68,6.2,North,27.6,39.1,N/A,,Overcast,350,2013-10-15 23:30:00
11:01 AM,71.6,35.6,27,29.68,6.2,North,31.1,44.9,N/A,,Overcast,350,2013-10-16 00:01:00
11:30 AM,71.6,35.6,27,29.65,6.2,North,31.1,44.9,N/A,,Overcast,350,2013-10-16 00:30:00
12:00 PM,73,36,16,29.65,,NNW,34.5,,,,,340,2013-10-16 01:00:00
12:00 PM,73.4,35.6,25,29.65,6.2,NNW,34.5,46.0,N/A,,Overcast,340,2013-10-16 01:00:00
12:30 PM,75.2,37.4,25,29.62,6.2,North,32.2,44.9,N/A,,Overcast,350,2013-10-16 01:30:00
1:02 PM,77.0,37.4,24,29.59,6.2,North,31.1,46.0,N/A,,Mostly Cloudy,350,2013-10-16 02:02:00
1:30 PM,78.8,35.6,21,29.59,6.2,NNW,31.1,44.9,N/A,,Scattered Clouds,340,2013-10-16 02:30:00
2:00 PM,80.6,35.6,20,29.56,6.2,NNW,33.4,52.9,N/A,,Unknown,340,2013-10-16 03:00:00
2:34 PM,78.8,33.8,20,29.53,6.2,NNW,34.5,48.3,N/A,,Scattered Clouds,340,2013-10-16 03:34:00
3:00 PM,80,33,10,,,NNW,33.4,,,,,340,2013-10-16 04:00:00
3:00 PM,80.6,33.8,18,29.53,6.2,NNW,33.4,54.1,N/A,,Mostly Cloudy,340,2013-10-16 04:00:00
3:30 PM,80.6,33.8,18,29.50,6.2,NNW,29.9,42.6,N/A,,Overcast,340,2013-10-16 04:30:00
4:00 PM,82.4,35.6,19,29.50,6.2,NNW,28.8,40.3,N/A,,Overcast,330,2013-10-16 05:00:00
4:30 PM,80.6,30.2,16,29.47,6.2,NNW,31.1,44.9,N/A,,Overcast,330,2013-10-16 05:30:00
5:03 PM,82.4,33.8,17,29.47,6.2,NNW,26.5,38.0,N/A,,Overcast,330,2013-10-16 06:03:00
6:00 PM,80,31,9,29.47,,NNW,27.6,,,,,330,2013-10-16 07:00:00
6:00 PM,80.6,32.0,17,29.44,6.2,NNW,27.6,40.3,N/A,,Overcast,330,2013-10-16 07:00:00
6:30 PM,78.8,33.8,20,29.44,6.2,NNW,23.0,-,N/A,,Scattered Clouds,340,2013-10-16 07:30:00
7:00 PM,77.0,33.8,21,29.44,6.2,North,17.3,-,N/A,,Mostly Cloudy,350,2013-10-16 08:00:00
7:30 PM,75.2,33.8,22,29.44,6.2,North,16.1,-,N/A,,Overcast,350,2013-10-16 08:30:00
8:00 PM,71.6,35.6,27,29.42,6.2,North,13.8,-,N/A,,Overcast,360,2013-10-16 09:00:00
8:30 PM,69.8,33.8,27,29.42,6.2,North,12.7,-,N/A,,Overcast,360,2013-10-16 09:30:00
9:00 PM,70,32,15,29.42,,North,15.0,,,,Overcast,0,2013-10-16 10:00:00
9:00 PM,69.8,32.0,25,29.42,6.2,North,15.0,-,N/A,,Overcast,360,2013-10-16 10:00:00
9:30 PM,68.0,35.6,30,29.42,6.2,WSW,5.8,-,N/A,,Overcast,250,2013-10-16 10:30:00
9:59 PM,69.8,41.0,35,29.42,6.2,SW,17.3,-,N/A,,Overcast,230,2013-10-16 10:59:00
10:00 PM,69.8,41.0,35,29.42,6.2,SW,18.4,-,N/A,,Overcast,230,2013-10-16 11:00:00
10:27 PM,66.2,44.6,46,29.44,6.2,West,23.0,-,N/A,,Overcast,260,2013-10-16 11:27:00
11:43 PM,-9999,-9999,N/A,0.00,-9999.0,West,21.9,33.4,N/A,,Unknown,260,2013-10-16 12:43:00